Current Weather Conditions: station 62140

sailwx.info

Wind from 230 at 13 knots

Air temperature 12.5° C
Dewpoint 12.0° C

Last reported at 2019-Jun-18 06:00 UTC.
Time now 2019-Jun-18 07:28 UTC

Location: N 57°18' E 001°18'.
View on Google Maps.

See reports from other nearby stations

  
Tides and Currents Weather Stations Pressure Air Temp Water Temp Dewpoint Dewpoint Depression Visibility Wind Speed Wind Dir Waves Ship Positions
date/time (UTC)wind fromknots sea level pressurealtimeterstation pressurevisibilityair tempwater tempwave heightnotes
2019-Jun-18 06:00 230 13 12.5
2019-Jun-18 05:00 220 12 12.6
2019-Jun-18 04:00 230 12 12.6
2019-Jun-18 03:00 230 12 12.7
2019-Jun-18 02:00 210 14 12.9
2019-Jun-18 01:00 220 17 12.9
2019-Jun-18 00:00 210 17 13.0
2019-Jun-17 23:00 210 19 13.1
2019-Jun-17 22:00 210 20 13.3
2019-Jun-17 21:00 210 19 13.1
2019-Jun-17 20:00 210 19 13.4
2019-Jun-17 19:00 210 19 13.3
2019-Jun-17 18:00 200 19 13.3
2019-Jun-17 17:00 210 19 13.3
2019-Jun-17 16:00 210 19 13.1
2019-Jun-17 15:00 210 19 13.0
2019-Jun-17 14:00 220 18 12.8
2019-Jun-17 13:00 220 19 12.7
2019-Jun-17 12:00 220 19 12.8
2019-Jun-17 11:00 220 19 12.8
2019-Jun-17 10:00 220 20 12.8
2019-Jun-17 09:00 210 20 12.9
2019-Jun-17 08:00 210 20 12.8
2019-Jun-17 07:00 200 20 12.8
2019-Jun-17 06:00 190 20 13.0
2019-Jun-17 05:00 200 20 13.3
2019-Jun-17 04:00 180 20 13.1
2019-Jun-17 03:00 160 15 12.8
2019-Jun-17 02:00 170 13 12.6
2019-Jun-17 01:00 180 15 12.6
2019-Jun-17 00:00 170 15 12.6
2019-Jun-16 23:00 170 14 12.6
2019-Jun-16 22:00 180 15 12.5
2019-Jun-16 21:00 180 15 12.4
2019-Jun-16 20:00 180 14 12.4
2019-Jun-16 19:00 180 14 12.3
2019-Jun-16 18:00 190 14 12.3
2019-Jun-16 17:00 190 14 12.2
2019-Jun-16 16:00 220 15 12.2
2019-Jun-16 15:00 190 13 12.2
2019-Jun-16 14:00 270 14 12.2
2019-Jun-16 13:00 260 13 12.1
2019-Jun-16 12:00 200 13 12.1
2019-Jun-16 11:00 210 13 11.9
2019-Jun-16 10:00 210 13 11.8
2019-Jun-16 09:00 220 13 11.5
2019-Jun-16 08:00 220 13 11.9
2019-Jun-16 07:00 220 11 11.6